413  
ASUS43 KDTX 161110  
RWRMI  
MICHIGAN HOURLY REGIONAL WEATHER ROUNDUP  
NATIONAL WEATHER SERVICE DETROIT/PONTIAC MI  
700 AM EDT TUE SEP 16 2014  
 
NOTE: "FAIR" INDICATES FEW OR NO CLOUDS BELOW 12,000 FEET WITH NO  
SIGNIFICANT WEATHER AND/OR TO VISIBILITY
.  
 
MIZ047>049-052>055-059>063-066>070-074>076-081>083-161200-  
SOUTHEAST LOWER MICHIGAN  
 
CITY SKY/WX TMP DP RH WIND PRES REMARKS
 
ADRIAN CLOUDY 51 50 96 CALM 30.16S  
ALMA FOG 39 39 99 CALM 30.16S VSB 1/2  
ANN ARBOR PTCLDY 50 46 86 NW3 30.15R  
BAD AXE FOG 38 38 100 CALM 30.14R VSB 1/2  
CARO FOG 44 44 100 CALM 30.15R VSB 1/2  
DETROIT CITY CLEAR 52 47 83 NW6 30.15R  
DETROIT MOCLDY 49 48 97 NW3 30.15R  
FLINT CLOUDY 50 47 89 NW6 30.17R  
GROSSE ILE CLEAR 52 48 87 NW5 30.14R  
HILLSDALE CLOUDY 51 51 100 NW5 30.16R  
HOWELL MOCLDY 49 48 96 NW5 30.16R  
 
CITY SKY/WX TMP DP RH WIND PRES REMARKS
 
JACKSON CLOUDY 50 48 93 N5 30.16R  
LAMBERTVILLE CLEAR 50 48 93 CALM 30.16R  
LANSING FOG 47 46 97 W3 30.18R VSB 1/2  
LAPEER CLOUDY 48 47 97 CALM 30.15R FOG  
MASON CLOUDY 49 48 95 CALM 30.16R  
MONROE CLEAR 48 46 93 CALM 30.14R FOG  
MT. CLEMENS PTCLDY 48 46 93 NW5 30.13R  
PONTIAC MOCLDY 49 46 90 NW8 30.14R  
PORT HOPE N/A 48 45 89 W3 30.11R  
PORT HURON MOCLDY 48 48 100 W5 30.14R  
TRI CITIES FOG 45 43 93 W7 30.16R VSB 1/8  
TROY CLEAR 51 48 90 NW7 30.16R  
SAGINAW HB CLEAR 43 43 100 W3 30.15R FOG  

 
MIZ043>046-050>051-056>058-064>065-071>073-077>080-161200-  
SOUTHWEST LOWER MICHIGAN  
 
CITY SKY/WX TMP DP RH WIND PRES REMARKS
 
BATTLE CREEK FOG 47 45 93 NW3 30.18R VSB 1/4  
BENTON HARBOR FOG 43 42 97 CALM 30.18R VSB 1  
BIG RAPIDS FOG 38 38 100 SW5 30.15S VSB 1/4 WCI 35  
COLDWATER CLOUDY 51 50 97 N5 30.17R  
FREMONT FOG 37 37 99 CALM 30.16S VSB 1/2  
HOLLAND CLEAR 43 41 93 CALM 30.17S FOG  
GRAND RAPIDS FOG 44 44 100 S3 30.17S VSB 1/4  
IONIA FOG 45 45 99 CALM 30.16S VSB<1/4  
KALAMAZOO CLEAR 43 42 97 CALM 30.18R  
LUDINGTON FOG 39 39 98 CALM 30.15S VSB 1/2  
MARSHALL CLOUDY 47 47 97 CALM 30.16S  
MOUNT PLEASANT FOG 39 38 97 CALM 30.16R VSB 1/2  
MUSKEGON FOG 42 39 89 CALM 30.17R VSB 1  
SOUTH HAVEN CLEAR 42 42 99 CALM 30.17S FOG  

 
MIZ016>042-161200-  
NORTHERN LOWER MICHIGAN  
 
CITY SKY/WX TMP DP RH WIND PRES REMARKS
 
ALPENA CLEAR 42 41 96 W5 30.13R  
BEAVER ISLAND CLEAR 42 41 97 CALM 30.12S  
BELLAIRE MOCLDY 45 44 95 CALM 30.13F FOG  
CADILLAC FOG 39 39 100 CALM 30.13S VSB<1/4  
CHARLEVOIX PTCLDY 49 43 79 W3 30.15S  
FRANKFORT FOG 44 41 89 CALM 30.14R VSB 1/4  
GAYLORD CLOUDY 40 40 100 CALM 30.12S  
GRAYLING FOG 42 42 100 CALM 30.14S VSB 3/4  
HARBOR SPRINGS CLEAR 43 41 92 CALM 30.12S  
HOUGHTON LAKE CLOUDY 43 42 97 CALM 30.14S  
MANISTEE PTCLDY 39 37 93 CALM 30.15S  
OSCODA CLEAR 41 41 100 CALM 30.13S  
PELLSTON FOG 38 38 100 CALM 30.12S VSB 1/4  
ROGERS CITY PTCLDY 42 42 100 SW6 30.13S  
TRAVERSE CITY PTCLDY 47 44 90 CALM 30.12S  

 
MIZ007>008-015-161200-  
EASTERN UPPER MICHIGAN  
 
CITY SKY/WX TMP DP RH WIND PRES REMARKS
 
KINROSS CLEAR 39 39 100 SW5 30.09S  
MACKINAC ISLAN CLEAR 49 44 83 W6 30.10S  
NEWBERRY CLEAR 40 39 97 W15 30.09R WCI 31  
S. S. MARIE CLEAR 42 39 89 SW5 30.08R  
MUNISING N/A 41 35 79 S8 30.09S  

 
MIZ004>006-011>014-085-161200-  
CENTRAL UPPER MICHIGAN  
 
CITY SKY/WX TMP DP RH WIND PRES REMARKS
 
MANISTIQUE CLEAR 38 37 97 W5 30.11S WCI 34  
ESCANABA CLEAR 37 36 93 W7 30.13R WCI 32  
MENOMINEE CLEAR 39 36 87 W3 30.14F  
SAWYER-GWINN CLEAR 36 34 93 SW3 30.10S  

 
MIZ001>003-009>011-084-161200-  
WESTERN UPPER MICHIGAN  
 
CITY SKY/WX TMP DP RH WIND PRES REMARKS
 
IRON MOUNTAIN CLEAR 37 34 89 CALM 30.13R  
HOUGHTON MOCLDY 48 38 68 W14 30.05F  
COPPER HARBOR N/A 53 38 56 W9 30.03F  
IRONWOOD PTCLDY 45 36 70 SW10 30.09S  

 
 
ABBREVIATIONS USED IN REMARKS  
TC - TEMPERATURE IN CELSIUS  
WCI - WIND CHILL INDEX  
HX - HEAT INDEX  
VSB - VISIBILITY  
 
CLICK HERE TO GO TO PREVIOUS BULLETINS.

The Nexlab MI Page Main Text Page